Location: Newark
(46.9000°N, 28.3500°E)
Time: 13:43:26
(UTC+00:00)

Vanguard 1 Rocket - Pass Details

Date: 30 August 2019
Orbit: 651 x 4225 km, 34.3° (Epoch: 20 September)

Event Time Altitude Azimuth Distance (km) Brightness Sun altitude
Rises 00:42:28 0° 246° (WSW) 3,011 - -24.2°
Reaches altitude 10° 00:45:23 10° 226° (SW) 2,046 - -23.9°
Maximum altitude 00:48:23 18° 182° (S) 1,643 - -23.5°
Exits shadow 00:50:42 13° 149° (SSE) 2,008 9.0 -23.2°
Drops below altitude 10° 00:51:44 10° 139° (SE) 2,303 9.4 -23.1°
Sets 00:55:18 0° 121° (ESE) 3,570 10.6 -22.7°
